User: anonymous   Login
Location: Unspecified
(51.3762°N, 0.0000°E)
Time: 22:57:07
(UTC+00:00)
Language:

Max Valier Satellite - Orbit

View from above orbital plane
View from above orbital plane
View from above satellite
View from above satellite

Ground track
Ground track

The orbit data is extracted from the following two-line orbital elements,

1 42778U 17036P   19200.16536877  .00000555  00000-0  27213-4 0  9994
2 42778  97.3524 257.1581 0014063 114.6070 245.6633 15.22048689114877
Epoch (UTC): 19 July 2019 03:58:07
Eccentricity: 0.0014063
inclination: 97.3524°
perigee height: 490 km
apogee height: 509 km
right ascension of ascending node: 257.1581°
argument of perigee: 114.6070°
revolutions per day: 15.22048689
mean anomaly at epoch: 245.6633°
orbit number at epoch: 11487

The dashed part of the orbit path shows where the satellite is in the earth's shadow,  

DLR